Tillbaka till svenska Fidonet
English   Information   Debug  
FILM   0/18
FNEWS_PUBLISH   5034
FN_SYSOP   42247
FN_SYSOP_OLD1   71952
FTP_FIDO   0/2
FTSC_PUBLIC   0/13979
FUNNY   0/4886
GENEALOGY.EUR   0/71
GET_INFO   105
GOLDED   0/408
HAM   2041/16786
HOLYSMOKE   0/6791
HOT_SITES   0/1
HTMLEDIT   0/71
HUB203   466
HUB_100   264
HUB_400   39
HUMOR   0/29
IC   0/2851
INTERNET   0/424
INTERUSER   0/3
IP_CONNECT   719
JAMNNTPD   0/233
JAMTLAND   0/47
KATTY_KORNER   0/41
LAN   0/16
LINUX-USER   0/19
LINUXHELP   0/1155
LINUX   0/22430
LINUX_BBS   0/957
mail   18.68
mail_fore_ok   249
MENSA   0/341
MODERATOR   0/102
MONTE   0/992
MOSCOW_OKLAHOMA   0/1245
MUFFIN   0/783
MUSIC   0/321
N203_STAT   938
N203_SYSCHAT   313
NET203   321
NET204   69
NET_DEV   0/10
NORD.ADMIN   0/101
NORD.CHAT   0/2572
NORD.FIDONET   189
NORD.HARDWARE   0/28
NORD.KULTUR   0/114
NORD.PROG   0/32
NORD.SOFTWARE   0/88
NORD.TEKNIK   0/58
NORD   0/453
OCCULT_CHAT   0/93
OS2BBS   0/787
OS2DOSBBS   0/580
OS2HW   0/42
OS2INET   0/37
OS2LAN   0/134
OS2PROG   0/36
OS2REXX   0/113
OS2USER-L   207
OS2   0/4835
OSDEBATE   0/18996
PASCAL   0/490
PERL   0/457
PHP   0/45
POINTS   0/405
POLITICS   0/29554
POL_INC   5293/14731
PSION   103
R20_ADMIN   1133
R20_AMATORRADIO   0/2
R20_BEST_OF_FIDONET   16
R20_CHAT   0/897
R20_DEPP   0/3
R20_DEV   400
R20_ECHO2   1934
R20_ECHOPRES   0/35
R20_ESTAT   0/719
R20_FIDONETPROG...
...RAM.MYPOINT
  0/2
R20_FIDONETPROGRAM   0/22
R20_FIDONET   0/248
R20_FILEFIND   0/24
R20_FILEFOUND   0/22
R20_HIFI   0/3
R20_INFO2   3828
R20_INTERNET   0/12940
R20_INTRESSE   0/60
R20_INTR_KOM   0/99
R20_KANDIDAT.CHAT   42
R20_KANDIDAT   28
R20_KOM_DEV   112
R20_KONTROLL   0/13360
R20_KORSET   0/18
R20_LOKALTRAFIK   0/24
R20_MODERATOR   0/1852
R20_NC   76
R20_NET200   245
R20_NETWORK.OTH...
...ERNETS
  0/13
R20_OPERATIVSYS...
...TEM.LINUX
  0/44
R20_PROGRAMVAROR   0/1
R20_REC2NEC   534
R20_SFOSM   0/341
R20_SF   0/108
R20_SPRAK.ENGLISH   0/1
R20_SQUISH   107
R20_TEST   2
R20_WORST_OF_FIDONET   20
RAR   0/9
RA_MULTI   106
RA_UTIL   0/162
REGCON.EUR   0/2072
REGCON   0/13
SCIENCE   0/1206
SF   0/239
SHAREWARE_SUPPORT   0/5146
SHAREWRE   0/14
SIMPSONS   0/169
STATS_OLD1   2051/2539.065
STATS_OLD2   0/2530
STATS_OLD3   0/2395.095
STATS_OLD4   0/1692.25
SURVIVOR   0/495
SYSOPS_CORNER   0/3
SYSOP   0/84
TAGLINES   0/112
TEAMOS2   0/4530
TECH   0/2617
TEST.444   0/105
TRAPDOOR   0/19
TREK   0/755
TUB   0/290
UFO   0/40
UNIX   0/1316
USA_EURLINK   0/102
USR_MODEMS   0/1
VATICAN   0/2740
VIETNAM_VETS   0/14
VIRUS   0/378
VIRUS_INFO   0/201
VISUAL_BASIC   0/473
WHITEHOUSE   0/5187
WIN2000   0/101
WIN32   0/30
WIN95   2190/4291
WIN95_OLD1   0/70272
WINDOWS   0/1517
WWB_SYSOP   0/419
WWB_TECH   0/810
ZCC-PUBLIC   0/1
ZEC   4

 
4DOS   0/134
ABORTION   0/7
ALASKA_CHAT   0/506
ALLFIX_FILE   0/1313
ALLFIX_FILE_OLD1   0/7997
ALT_DOS   0/152
AMATEUR_RADIO   0/1039
AMIGASALE   0/14
AMIGA   0/331
AMIGA_INT   0/1
AMIGA_PROG   0/20
AMIGA_SYSOP   0/26
ANIME   0/15
ARGUS   0/924
ASCII_ART   0/340
ASIAN_LINK   0/651
ASTRONOMY   0/417
AUDIO   0/92
AUTOMOBILE_RACING   0/105
BABYLON5   0/17862
BAG   135
BATPOWER   0/361
BBBS.ENGLISH   0/382
BBSLAW   0/109
BBS_ADS   0/5290
BBS_INTERNET   0/507
BIBLE   682/3563
BINKD   0/1119
BINKLEY   0/215
BLUEWAVE   0/2173
CABLE_MODEMS   0/25
CBM   0/46
CDRECORD   0/66
CDROM   0/20
CLASSIC_COMPUTER   0/378
COMICS   0/15
CONSPRCY   0/899
COOKING   42383
COOKING_OLD1   0/24719
COOKING_OLD2   15390/40862
COOKING_OLD3   0/37489
COOKING_OLD4   23884/35496
COOKING_OLD5   9370
C_ECHO   0/189
C_PLUSPLUS   0/31
DIRTY_DOZEN   0/201
DOORGAMES   0/2388
DOS_INTERNET   0/196
duplikat   6103
ECHOLIST   13160/18295
EC_SUPPORT   0/318
ELECTRONICS   0/359
ELEKTRONIK.GER   1534
ENET.LINGUISTIC   0/13
ENET.POLITICS   0/4
ENET.SOFT   0/11701
ENET.SYSOP   34433
ENET.TALKS   0/32
ENGLISH_TUTOR   0/2000
EVOLUTION   0/1335
FDECHO   0/217
FDN_ANNOUNCE   6870/7068
FIDONEWS   25233
FIDONEWS_OLD1   0/49742
FIDONEWS_OLD2   0/35949
FIDONEWS_OLD3   0/30874
FIDONEWS_OLD4   0/37224
FIDO_SYSOP   12977
FIDO_UTIL   0/180
FILEFIND   0/209
FILEGATE   0/212
Möte HAM, 16786 texter
 lista första sista föregående nästa
Text 2198, 787 rader
Skriven 2008-03-21 00:00:43 av Amsat List (1:323/120.0)
Ärende: [keps]  orb08080.amsa
=============================
[keps]  orb08080.amsa

Return-Path: <keps-bounces@amsat.org>
X-Rcpt: craig.healy@chowda.com
X-UIDL: 1206073026.11381

SB KEPS @ AMSAT  $ORB08080.O
Orbital Elements  08080.OSCAR

HR AMSAT ORBITAL ELEMENTS FOR OSCAR SATELLITES
FROM WA5QGD FORT WORTH,TX March 20, 2008
Send Subscribe/unsubscribe to KEPS at 
http://www.amsat.org/mailman/listinfo/keps
BID: ORB08080.O
TO ALL RADIO AMATEURS BT

Satellite: AO-07
Catalog number: 07530
Epoch time:      08080.70845864
Element set:     131
Inclination:      101.4779 deg
RA of node:       115.1342 deg
Eccentricity:    0.0012125
Arg of perigee:   075.8743 deg
Mean anomaly:     284.3671 deg
Mean motion:   12.53573557 rev/day
Decay rate:       -2.7e-07 rev/day^2
Epoch rev:           52589
Checksum:              300

Satellite: AO-10
Catalog number: 14129
Epoch time:      08079.40395969
Element set:    0486
Inclination:      025.9277 deg
RA of node:       224.7537 deg
Eccentricity:    0.6017441
Arg of perigee:   108.1305 deg
Mean anomaly:     323.1729 deg
Mean motion:   02.05872595 rev/day
Decay rate:      -3.55e-06 rev/day^2
Epoch rev:           18625
Checksum:              324

Satellite: UO-11
Catalog number: 14781
Epoch time:      08080.73216019
Element set:     623
Inclination:      098.1647 deg
RA of node:       113.4019 deg
Eccentricity:    0.0009154
Arg of perigee:   005.6187 deg
Mean anomaly:     354.5131 deg
Mean motion:   14.79627029 rev/day
Decay rate:       3.30e-06 rev/day^2
Epoch rev:           29077
Checksum:              289

Satellite: RS-15
Catalog number: 23439
Epoch time:      08079.87854932
Element set:    0127
Inclination:      064.8158 deg
RA of node:       279.4695 deg
Eccentricity:    0.0149893
Arg of perigee:   139.7459 deg
Mean anomaly:     221.4677 deg
Mean motion:   11.27551936 rev/day
Decay rate:       -3.9e-07 rev/day^2
Epoch rev:           54489
Checksum:              376

Satellite: FO-29
Catalog number: 24278
Epoch time:      08079.93592745
Element set:    0746
Inclination:      098.5851 deg
RA of node:       007.9003 deg
Eccentricity:    0.0351414
Arg of perigee:   086.6082 deg
Mean anomaly:     277.5179 deg
Mean motion:   13.52936143 rev/day
Decay rate:       -3.1e-07 rev/day^2
Epoch rev:           57232
Checksum:              332

Satellite: SO-33
Catalog number: 25509
Epoch time:      08079.43981628
Element set:    0157
Inclination:      031.4322 deg
RA of node:       103.8035 deg
Eccentricity:    0.0355469
Arg of perigee:   322.5074 deg
Mean anomaly:     035.1247 deg
Mean motion:   14.28201496 rev/day
Decay rate:        4.9e-07 rev/day^2
Epoch rev:           49077
Checksum:              305

Satellite: AO-40
Catalog number: 26609
Epoch time:      08078.04377786
Element set:      24
Inclination:      007.4979 deg
RA of node:       092.3688 deg
Eccentricity:    0.7921243
Arg of perigee:   062.3329 deg
Mean anomaly:     354.9881 deg
Mean motion:   01.25582347 rev/day
Decay rate:      -3.72e-06 rev/day^2
Epoch rev:            3389
Checksum:              344

Satellite: VO-52
Catalog number: 28650
Epoch time:      08079.77749866
Element set:    0884
Inclination:      097.7973 deg
RA of node:       148.8122 deg
Eccentricity:    0.0028306
Arg of perigee:   073.6531 deg
Mean anomaly:     286.7763 deg
Mean motion:   14.81435650 rev/day
Decay rate:       2.54e-06 rev/day^2
Epoch rev:           15536
Checksum:              355

Satellite: PO-63
Catalog number: 29712
Epoch time:      08080.73190811
Element set:     285
Inclination:      097.8845 deg
RA of node:       140.5510 deg
Eccentricity:    0.0013323
Arg of perigee:   312.5367 deg
Mean anomaly:     047.4719 deg
Mean motion:   14.80062072 rev/day
Decay rate:       4.82e-06 rev/day^2
Epoch rev:            6438
Checksum:              294

/EX
SB KEPS @ AMSAT  $ORB08080.D
Orbital Elements  08080.MICROS

HR AMSAT ORBITAL ELEMENTS FOR THE MICROSATS
FROM WA5QGD FORT WORTH,TX March 20, 2008
Send Subscribe/unsubscribe to KEPS at 
http://www.amsat.org/mailman/listinfo/keps
BID: ORB08080.D
TO ALL RADIO AMATEURS BT

Satellite: AO-16
Catalog number: 20439
Epoch time:      08079.55084780
Element set:     277
Inclination:      098.2230 deg
RA of node:       064.2279 deg
Eccentricity:    0.0011977
Arg of perigee:   083.2143 deg
Mean anomaly:     277.0408 deg
Mean motion:   14.31787514 rev/day
Decay rate:        3.6e-07 rev/day^2
Epoch rev:           94809
Checksum:              321

Satellite: LO-19
Catalog number: 20442
Epoch time:      08079.61304209
Element set:    0203
Inclination:      098.1976 deg
RA of node:       073.0828 deg
Eccentricity:    0.0012913
Arg of perigee:   082.7763 deg
Mean anomaly:     277.4885 deg
Mean motion:   14.32026315 rev/day
Decay rate:        1.0e-08 rev/day^2
Epoch rev:           94825
Checksum:              302

Satellite: AO-27
Catalog number: 22825
Epoch time:      08079.66107259
Element set:    0925
Inclination:      098.3731 deg
RA of node:       043.0851 deg
Eccentricity:    0.0008528
Arg of perigee:   159.3805 deg
Mean anomaly:     200.7706 deg
Mean motion:   14.29233104 rev/day
Decay rate:       -3.2e-07 rev/day^2
Epoch rev:           75498
Checksum:              311

Satellite: IO-26
Catalog number: 22826
Epoch time:      08079.87065180
Element set:    0628
Inclination:      098.3666 deg
RA of node:       044.2383 deg
Eccentricity:    0.0009157
Arg of perigee:   155.9921 deg
Mean anomaly:     204.1695 deg
Mean motion:   14.29481572 rev/day
Decay rate:        3.3e-07 rev/day^2
Epoch rev:           75510
Checksum:              324

